Hinsdale, NY

7:36 PM EST on February 25, 2017 (GMT -0500)
Cattaraugus County-Olean

Weather History for KOLE - November, 2013

Change the Weather History Date:

Thursday, November 28, 2013

  Actual Average (KBFD) Record (KBFD)
Temperature  
Mean Temperature 18 °F -  
Max Temperature 21 °F 39 °F 70 °F (1990)
Min Temperature 14 °F 26 °F 9 °F (2002)
Degree Days  
Heating Degree Days 48    
Moisture  
Dew Point 16 °F    
Average Humidity 89    
Maximum Humidity 100    
Minimum Humidity 74    
Precipitation  
Precipitation 0.00 in - - ()
Sea Level Pressure  
Sea Level Pressure 30.14 in    
Wind  
Wind Speed 6 mph (West)    
Max Wind Speed 13 mph    
Max Gust Speed 21 mph    
Visibility 5 miles    
Events Snow    
Averages and records for this station are not official NWS values.
T = Trace of Precipitation, MM = Missing Value Source: NWS Daily Summary

Daily Weather History Graph

Daily Weather History Graph

Search for Another Location

Airport or City:

Trip Planner

Search our weather history database for the weather conditions in past years. The results will help you decide how hot, cold, wet, or windy it might be!

Date:

Astronomy

Nov. 28, 2013 Rise Set
Actual Time 7:19 AM EST 4:43 PM EST
Civil Twilight 6:48 AM EST 5:14 PM EST
Nautical Twilight 6:13 AM EST 5:49 PM EST
Astronomical Twilight 5:40 AM EST 6:22 PM EST
Moon 2:15 AM EST (11/28) 1:56 PM EST (11/28)
Length of Visible Light 10h 25m
Length of Day
9h 23m
Waning Crescent, 22% of the Moon is Illuminated
Nov 28
Waning Crescent
Dec 2
New
Dec 9
First Quarter
Dec 17
Full
Dec 25
Last Quarter

Hourly Weather History & Observations

Time (EST) Temp. Windchill Dew Point Humidity Pressure Visibility Wind Dir Wind Speed Gust Speed Precip Events Conditions
12:15 AM 17.6 °F 5.7 °F 14.0 °F 86% 29.85 in 1.8 mi WNW 10.4 mph 18.4 mph N/A Snow Light Snow
12:35 AM 17.6 °F 4.3 °F 14.0 °F 86% 29.85 in 4.0 mi WNW 12.7 mph 18.4 mph N/A Snow Light Snow
12:55 AM 17.6 °F 6.4 °F 14.0 °F 86% 29.87 in 1.8 mi WNW 9.2 mph 20.7 mph N/A Snow Light Snow
1:15 AM 17.6 °F 8.2 °F 14.0 °F 86% 29.88 in 0.8 mi WNW 6.9 mph - N/A Snow Snow
1:35 AM 17.6 °F 7.3 °F 15.8 °F 93% 29.89 in 1.2 mi WNW 8.1 mph - N/A Snow Light Snow
1:55 AM 17.6 °F 6.4 °F 14.0 °F 86% 29.91 in 1.2 mi WNW 9.2 mph 16.1 mph N/A Snow Light Snow
2:15 AM 17.6 °F 7.3 °F 14.0 °F 86% 29.92 in 1.2 mi WNW 8.1 mph 16.1 mph N/A Snow Light Snow
2:35 AM 17.6 °F 5.7 °F 14.0 °F 86% 29.93 in 2.0 mi WNW 10.4 mph - N/A Snow Light Snow
2:55 AM 17.6 °F 8.2 °F 14.0 °F 86% 29.94 in 3.0 mi WNW 6.9 mph - N/A Snow Light Snow
3:15 AM 17.6 °F 9.3 °F 14.0 °F 86% 29.95 in 2.5 mi WNW 5.8 mph - N/A Snow Light Snow
3:35 AM 17.6 °F 8.2 °F 14.0 °F 86% 29.97 in 1.0 mi WNW 6.9 mph - N/A Snow Light Snow
3:55 AM 17.6 °F 12.3 °F 14.0 °F 86% 29.99 in 0.8 mi NW 3.5 mph - N/A Snow Snow
4:15 AM 17.6 °F 6.4 °F 14.0 °F 86% 30.00 in 1.5 mi WNW 9.2 mph 18.4 mph N/A Snow Light Snow
4:35 AM 15.8 °F 7.2 °F 12.2 °F 86% 30.01 in 7.0 mi WNW 5.8 mph 16.1 mph N/A Snow Light Snow
4:55 AM 15.8 °F 6.1 °F 12.2 °F 86% 30.02 in 2.5 mi West 6.9 mph - N/A Snow Light Snow
5:15 AM 15.8 °F 6.1 °F 12.2 °F 86% 30.04 in 7.0 mi WNW 6.9 mph - N/A Snow Light Snow
5:35 AM 15.8 °F 7.2 °F 12.2 °F 86% 30.05 in 10.0 mi WNW 5.8 mph - N/A Snow Light Snow
5:55 AM 15.8 °F 7.2 °F 12.2 °F 86% 30.06 in 7.0 mi WNW 5.8 mph - N/A Snow Light Snow
6:15 AM 15.8 °F 7.2 °F 12.2 °F 86% 30.07 in 3.0 mi WNW 5.8 mph - N/A Snow Light Snow
6:35 AM 15.8 °F 8.6 °F 12.2 °F 86% 30.08 in 3.0 mi WNW 4.6 mph - N/A Snow Light Snow
6:55 AM 15.8 °F 7.2 °F 12.2 °F 86% 30.09 in 10.0 mi WNW 5.8 mph - N/A Snow Light Snow
7:15 AM 14.0 °F 8.2 °F 12.2 °F 93% 30.10 in 10.0 mi West 3.5 mph - N/A   Overcast
7:35 AM 14.0 °F - 12.2 °F 93% 30.11 in 10.0 mi Calm Calm - N/A   Overcast
7:55 AM 14.0 °F - 12.2 °F 93% 30.13 in 10.0 mi Calm Calm - N/A   Scattered Clouds
8:15 AM 14.0 °F - 12.2 °F 93% 30.14 in 10.0 mi Calm Calm - N/A   Mostly Cloudy
8:35 AM 14.0 °F 8.2 °F 12.2 °F 93% 30.15 in 4.0 mi West 3.5 mph - N/A Snow Light Snow
8:55 AM 15.8 °F - 12.2 °F 86% 30.15 in 3.0 mi Calm Calm - N/A Snow Light Snow
9:15 AM 17.6 °F 12.3 °F 12.2 °F 79% 30.16 in 7.0 mi WNW 3.5 mph - N/A Snow Light Snow
9:35 AM 17.6 °F 12.3 °F 14.0 °F 86% 30.17 in 5.0 mi West 3.5 mph - N/A Snow Light Snow
9:55 AM 19.4 °F 11.5 °F 14.0 °F 80% 30.17 in 7.0 mi WNW 5.8 mph - N/A Snow Light Snow
10:15 AM 19.4 °F 12.8 °F 14.0 °F 80% 30.18 in 7.0 mi WNW 4.6 mph - N/A Snow Light Snow
10:35 AM 19.4 °F 11.5 °F 14.0 °F 80% 30.18 in 7.0 mi WNW 5.8 mph - N/A Snow Light Snow
10:55 AM 21.2 °F - 14.0 °F 74% 30.18 in 4.0 mi Calm Calm - N/A Snow Light Snow
11:15 AM 19.4 °F - 14.0 °F 80% 30.18 in 10.0 mi Calm Calm - N/A   Overcast
11:35 AM 21.2 °F 13.6 °F 14.0 °F 74% 30.18 in 4.0 mi NW 5.8 mph - N/A Snow Light Snow
11:55 AM 21.2 °F 16.4 °F 14.0 °F 74% 30.18 in 7.0 mi WNW 3.5 mph - N/A Snow Light Snow
12:15 PM 21.2 °F - 15.8 °F 80% 30.18 in 7.0 mi Calm Calm - N/A Snow Light Snow
12:35 PM 21.2 °F - 17.6 °F 86% 30.18 in 2.0 mi Calm Calm - N/A Snow Light Snow
12:55 PM 21.2 °F - 17.6 °F 86% 30.18 in 2.0 mi Calm Calm - N/A Snow Light Snow
1:15 PM 21.2 °F 16.4 °F 17.6 °F 86% 30.18 in 3.0 mi SW 3.5 mph - N/A Snow Light Snow
1:35 PM 21.2 °F 14.9 °F 17.6 °F 86% 30.17 in 7.0 mi WSW 4.6 mph - N/A Snow Light Snow
1:55 PM 21.2 °F 16.4 °F 17.6 °F 86% 30.17 in 2.0 mi WSW 3.5 mph - N/A Snow Light Snow
2:15 PM 21.2 °F 14.9 °F 19.4 °F 93% 30.17 in 1.2 mi SW 4.6 mph - N/A Snow Light Snow
2:35 PM 21.2 °F 14.9 °F 19.4 °F 93% 30.17 in 1.5 mi WSW 4.6 mph - N/A Snow Light Snow
2:55 PM 21.2 °F 14.9 °F 19.4 °F 93% 30.18 in 1.8 mi WSW 4.6 mph - N/A Snow Light Snow
3:15 PM 21.2 °F 16.4 °F 19.4 °F 93% 30.18 in 1.0 mi West 3.5 mph - N/A Snow Light Snow
3:35 PM 21.2 °F - 19.4 °F 93% 30.19 in 1.2 mi Calm Calm - N/A Snow Light Snow
3:55 PM 21.2 °F 16.4 °F 19.4 °F 93% 30.19 in 1.5 mi WSW 3.5 mph - N/A Snow Light Snow
4:15 PM 21.2 °F 16.4 °F 19.4 °F 93% 30.20 in 7.0 mi SW 3.5 mph - N/A Snow Light Snow
4:35 PM 21.2 °F - 19.4 °F 93% 30.20 in 4.0 mi Calm Calm - N/A Snow Light Snow
4:55 PM 21.2 °F - 19.4 °F 93% 30.21 in 5.0 mi Calm Calm - N/A Snow Light Snow
5:15 PM 21.2 °F 14.9 °F 19.4 °F 93% 30.21 in 7.0 mi SW 4.6 mph - N/A Snow Light Snow
5:35 PM 21.2 °F 16.4 °F 19.4 °F 93% 30.22 in 5.0 mi SSW 3.5 mph - N/A Snow Light Snow
5:55 PM 21.2 °F - 19.4 °F 93% 30.23 in 4.0 mi Calm Calm - N/A Snow Light Snow
6:15 PM 21.2 °F - 19.4 °F 93% 30.24 in 2.5 mi Calm Calm - N/A Snow Light Snow
6:35 PM 21.2 °F 16.4 °F 19.4 °F 93% 30.25 in 2.0 mi SW 3.5 mph - N/A Snow Light Snow
6:55 PM 21.2 °F 14.9 °F 19.4 °F 93% 30.26 in 2.5 mi SSW 4.6 mph - N/A Snow Light Snow
7:15 PM 21.2 °F 13.6 °F 19.4 °F 93% 30.26 in 2.0 mi SSW 5.8 mph - N/A Snow Light Snow
7:35 PM 21.2 °F 16.4 °F 19.4 °F 93% 30.26 in 2.5 mi SSW 3.5 mph - N/A Snow Light Snow
7:55 PM 19.4 °F 12.8 °F 19.4 °F 100% 30.26 in 3.0 mi SSW 4.6 mph - N/A Snow Light Snow
8:15 PM 19.4 °F 14.3 °F 19.4 °F 100% 30.27 in 5.0 mi SW 3.5 mph - N/A Snow Light Snow
8:35 PM 19.4 °F 14.3 °F 17.6 °F 93% 30.27 in 7.0 mi SW 3.5 mph - N/A Snow Light Snow
8:55 PM 19.4 °F 14.3 °F 17.6 °F 93% 30.28 in 7.0 mi SSW 3.5 mph - N/A Snow Light Snow
9:15 PM 19.4 °F 12.8 °F 17.6 °F 93% 30.28 in 7.0 mi SSW 4.6 mph - N/A   Overcast
9:35 PM 19.4 °F 14.3 °F 17.6 °F 93% 30.28 in 7.0 mi SSW 3.5 mph - N/A Snow Light Snow
9:55 PM 19.4 °F 12.8 °F 17.6 °F 93% 30.28 in 7.0 mi SSW 4.6 mph - N/A Snow Light Snow
10:15 PM 19.4 °F 12.8 °F 17.6 °F 93% 30.28 in 5.0 mi SSW 4.6 mph - N/A Snow Light Snow
10:35 PM 19.4 °F 11.5 °F 17.6 °F 93% 30.29 in 7.0 mi SW 5.8 mph - N/A Snow Light Snow
10:55 PM 19.4 °F 14.3 °F 17.6 °F 93% 30.29 in 5.0 mi SSW 3.5 mph - N/A Snow Light Snow
11:15 PM 19.4 °F 14.3 °F 17.6 °F 93% 30.29 in 5.0 mi SW 3.5 mph - N/A Snow Light Snow
11:35 PM 19.4 °F - 17.6 °F 93% 30.29 in 7.0 mi Calm Calm - N/A Snow Light Snow
11:55 PM 19.4 °F - 17.6 °F 93% 30.30 in 5.0 mi Calm Calm - N/A Snow Light Snow